User: anonymous   Login
Location: Cincinnati Observatory Center
(39.1389°N, 84.4225°W)
Time: 12:55:58
(UTC-05:00)
Language:

JAS-1B - Orbit

View from above orbital plane
View from above orbital plane
View from above satellite
View from above satellite

Ground track
Ground track

The orbit data is extracted from the following two-line orbital elements,

1 20480U 90013C   16341.09783025 -.00000035  00000-0 -14481-4 0  9998
2 20480  99.0242 144.6825 0540965 108.4959   3.9305 12.83413200256958
Epoch (UTC): 06 December 2016 02:20:52
Eccentricity: 0.0540965
inclination: 99.0242°
perigee height: 911 km
apogee height: 1744 km
right ascension of ascending node: 144.6825°
argument of perigee: 108.4959°
revolutions per day: 12.83413200
mean anomaly at epoch: 3.9305°
orbit number at epoch: 25695

The dashed part of the orbit path shows where the satellite is in the earth's shadow,  

DLR